Probability
67 73 77 75 74 78 80 73 65 62 55 48 46 44 38 31 26 26 35 38 34 28 19 18 25 23 18 14 10 7 5 4 3 1 0 0 1 0 0 0 0 0 0
74 78 81 80 80 84 85 79 71 65 58 52 51 50 45 37 29 29 37 40 36 30 22 22 26 24 21 20 17 11 6 3 3 2 1 1 1 0 0 0 0 1 1
83 83 84 85 86 89 89 83 78 74 66 59 56 55 53 45 38 36 38 38 34 30 27 25 27 26 24 24 22 16 9 3 2 3 2 1 1 0 0 0 0 1 2
84 85 86 87 88 87 84 81 81 80 74 66 61 59 57 51 45 40 37 35 33 31 29 28 30 30 28 26 24 19 13 7 3 3 3 2 1 1 1 0 0 1 2
77 82 85 85 83 77 75 77 80 80 77 71 68 65 61 56 49 42 35 34 35 33 31 30 33 34 32 30 28 25 20 14 9 7 7 5 3 3 2 1 0 1 2
66 74 79 79 75 70 71 73 74 75 73 70 70 68 64 61 55 47 38 33 34 34 31 31 35 37 35 34 34 32 26 20 17 15 13 11 8 5 3 2 1 1 2
53 63 71 72 70 70 71 70 68 66 63 64 66 66 62 60 56 49 40 34 32 33 33 34 36 38 37 36 36 34 28 24 23 21 19 18 14 10 6 4 2 3 3
45 53 63 68 69 70 70 68 65 61 57 58 61 59 56 53 49 45 40 36 34 34 36 38 37 37 36 35 36 33 29 27 25 23 23 23 18 13 9 6 4 3 3
38 45 57 66 69 68 67 65 63 59 56 55 54 52 48 47 47 45 41 39 37 36 37 37 35 35 36 37 37 34 30 29 26 24 26 25 21 16 12 9 7 6 4
32 39 53 63 66 64 62 60 58 55 53 50 47 43 42 45 49 48 44 42 40 38 36 34 32 32 35 38 39 36 32 28 25 25 27 26 22 19 16 14 13 10 8
30 36 48 57 59 58 56 54 50 47 46 45 42 41 41 43 47 47 43 41 40 38 36 33 30 27 28 30 32 31 27 23 22 23 27 26 23 21 20 18 16 13 12
33 38 45 49 51 50 49 47 44 41 40 41 40 41 41 41 42 42 39 37 35 33 32 29 24 21 20 23 24 22 19 18 18 21 26 25 23 22 21 18 14 12 12
37 40 42 43 44 44 43 41 39 36 36 37 38 39 38 35 36 36 35 32 29 27 25 21 19 17 17 19 20 19 18 18 18 20 23 23 22 21 18 16 13 10 8
38 39 39 38 38 38 36 34 33 33 33 35 36 36 33 30 30 31 30 27 24 21 18 16 16 15 13 13 16 18 19 19 18 19 20 21 21 19 16 13 11 8 6
35 35 34 33 32 31 31 30 30 32 33 35 35 33 30 28 27 26 25 23 21 17 14 12 13 12 9 7 10 14 16 17 17 16 18 20 18 14 10 8 7 6 5
32 31 30 29 27 27 28 28 29 31 33 34 33 31 28 25 23 20 19 19 18 15 12 10 9 9 6 4 4 8 13 15 14 14 14 15 13 8 4 3 2 3 3
33 32 30 28 26 26 26 25 27 29 31 32 31 28 24 19 16 16 16 16 14 12 10 8 8 7 5 2 1 3 8 12 11 10 10 8 6 3 2 1 1 1 1
38 36 32 29 26 24 22 22 24 26 29 29 27 23 18 14 13 14 16 15 12 8 7 7 8 8 4 1 0 1 5 8 8 6 5 3 2 1 1 1 1 2 1
39 35 32 28 24 22 21 22 23 24 25 25 23 21 17 15 14 13 14 13 10 8 6 6 7 6 2 0 0 1 2 4 4 3 2 1 1 0 0 1 2 2 2
30 29 27 25 23 22 23 24 23 23 22 20 20 20 20 17 15 13 13 10 8 7 5 3 3 2 1 0 0 0 1 1 2 2 1 0 0 0 0 1 1 1 1
23 22 22 22 23 23 23 22 21 21 19 18 17 17 17 15 14 14 12 9 6 4 2 1 0 0 0 0 0 0 0 0 1 1 0 0 0 0 0 0 0 0 0
21 20 21 22 22 21 19 18 17 15 14 14 12 11 11 10 10 10 8 5 2 1 0 0 0 0 0 0 0 0 0 0 0 0 0 0 0 0 0 0 0 0 0
22 21 21 21 20 17 15 14 13 10 9 9 8 7 6 5 5 5 3 1 0 0 0 0 0 0 0 1 1 0 0 0 0 0 0 0 0 0 0 0 0 0 0
21 19 19 18 15 11 9 11 11 10 7 6 5 4 3 3 3 2 1 0 0 0 0 0 0 0 0 1 1 1 1 1 1 1 1 1 1 0 0 0 0 0 0
17 16 16 15 11 7 5 7 10 10 7 5 4 3 2 1 1 1 0 0 0 0 0 0 0 0 0 1 1 1 2 2 2 2 2 2 2 1 0 0 0 0 0
15 16 15 12 8 5 3 5 7 8 5 4 3 3 1 0 0 0 0 0 0 0 0 0 0 0 0 0 0 1 1 1 1 2 3 3 2 1 0 0 0 0 0
Wind_Speed
16 15 16 16 14 13 13 12 11 11 9 8 8 6 6 5 4 5 7 8 7 7 4 3 4 3 3 4 4 3 3 2 2 1 0 1 3 4 3 3 3 4 5
16 16 15 15 15 13 13 13 12 12 11 7 6 5 6 5 5 4 6 8 7 7 7 4 4 4 2 3 3 3 2 2 2 2 1 1 1 2 4 4 4 4 4
17 18 17 16 15 15 15 13 13 11 11 9 6 5 4 4 5 5 6 7 7 7 6 7 5 5 4 4 4 4 4 2 2 2 2 1 1 2 2 5 4 4 3
16 17 17 16 15 14 14 12 12 12 11 10 9 10 8 8 7 6 6 7 7 7 7 7 6 5 4 5 6 6 4 3 2 2 2 2 2 1 1 2 2 4 5
15 17 17 15 14 14 13 12 11 11 11 10 10 9 9 7 6 6 7 8 7 7 7 7 6 5 4 5 5 5 5 3 3 2 2 2 2 3 2 2 2 2 3
12 15 15 14 13 13 12 12 12 11 11 11 11 10 10 8 7 7 7 7 6 7 8 8 7 6 5 5 5 5 6 4 4 3 2 2 2 3 3 2 3 3 3
12 13 14 14 13 13 12 11 12 11 11 12 11 11 10 9 8 8 7 8 7 7 8 9 7 7 6 6 6 5 5 5 4 4 3 2 3 2 2 2 2 2 2
11 13 13 13 12 13 12 11 11 11 11 11 11 10 10 8 7 8 7 7 6 7 8 8 8 7 7 8 6 6 6 5 5 7 5 3 3 2 3 2 2 2 2
9 10 11 11 11 11 11 11 10 10 10 10 9 9 9 9 8 7 7 6 5 6 8 8 8 8 8 7 6 5 6 5 6 6 5 4 3 3 2 2 2 2 2
9 9 9 9 8 8 8 8 9 9 9 9 9 9 9 8 7 7 7 6 6 6 7 8 8 8 7 7 7 6 6 6 6 5 5 5 4 3 3 2 2 2 2
9 9 8 8 7 7 7 7 7 8 7 7 7 6 7 7 7 7 7 7 6 6 6 6 7 7 7 7 7 7 6 7 7 7 6 6 5 3 2 2 2 2 2
9 9 9 7 6 6 6 6 7 7 7 7 6 6 6 6 7 7 6 6 6 6 6 6 6 7 7 7 7 8 7 7 8 7 6 6 5 5 4 3 3 2 2
9 8 8 7 6 5 4 4 5 6 6 6 6 5 5 5 5 5 5 5 5 5 5 6 6 6 6 6 6 7 7 7 7 6 6 6 6 6 4 4 3 2 3
9 9 7 6 5 5 4 4 3 4 4 5 5 5 4 4 3 3 4 4 4 5 5 5 5 5 5 5 5 6 6 6 5 5 5 5 5 5 4 4 3 3 2
10 9 7 6 5 5 4 3 3 3 4 5 4 4 4 4 3 3 4 3 3 4 4 4 4 4 4 4 5 5 6 5 5 4 3 3 3 3 3 2 1 1 1
9 9 7 6 5 4 3 3 4 4 4 4 4 4 3 3 4 4 4 3 3 3 3 3 3 3 2 2 3 3 3 3 3 3 2 3 3 4 4 3 2 1 1
9 8 7 5 4 4 4 3 4 4 4 4 4 4 4 4 4 4 4 3 3 2 3 2 3 2 2 2 3 3 2 2 2 2 2 2 1 3 3 3 2 1 1
9 7 6 6 5 4 4 4 4 4 5 4 4 4 4 4 4 4 4 3 3 3 3 3 3 3 3 3 3 4 3 3 3 2 2 2 3 2 1 2 3 2 2
9 7 6 6 5 4 4 5 5 5 5 5 4 4 3 3 4 4 4 3 4 4 4 4 4 4 4 5 4 4 3 4 4 4 6 6 5 6 5 4 3 3 1
9 8 7 7 6 5 5 6 6 6 5 5 4 4 4 4 4 5 5 5 5 6 6 6 6 6 6 7 7 5 4 5 5 5 7 9 7 7 6 4 3 3 1
10 8 7 7 5 5 6 6 6 6 5 5 5 6 6 5 5 5 6 7 7 7 7 8 8 8 8 9 9 7 4 4 5 5 5 4 7 8 8 6 4 2 1
10 9 7 7 6 6 6 7 6 6 6 7 8 8 7 6 6 7 7 7 7 8 7 7 7 7 7 9 9 10 9 7 6 5 4 4 7 8 7 5 4 4 3
9 8 8 7 7 7 7 7 6 6 8 9 9 9 9 9 8 8 8 6 6 6 6 6 6 6 5 6 10 11 10 9 6 5 6 5 5 5 4 4 4 3 2
9 8 9 9 8 8 8 7 7 7 9 10 9 9 9 10 10 8 8 7 6 5 6 6 6 5 5 5 4 4 5 6 5 4 4 3 2 2 3 3 2 2 3
9 8 9 9 9 9 9 8 7 8 10 10 10 10 10 10 11 11 9 9 8 6 6 6 5 5 5 5 6 4 4 3 3 1 2 2 3 3 4 4 4 4 4
9 9 10 10 10 9 9 8 7 8 9 9 8 8 8 8 9 10 11 16 13 16 16 13 10 8 8 7 10 11 9 8 7 5 4 5 4 5 4 4 3 3 3
Wind_Direction
171 168 168 169 169 166 166 171 176 170 170 176 181 185 184 185 187 181 168 168 178 177 189 177 155 184 174 162 158 151 160 197 200 177 187 223 198 186 181 204 190 188 189
168 168 170 172 174 172 172 175 180 178 180 181 183 187 182 183 189 189 167 174 181 179 185 185 173 181 171 164 159 150 166 207 191 172 154 232 252 238 212 194 195 199 193
171 171 175 177 177 178 180 183 183 182 185 180 180 186 177 188 193 186 174 183 185 186 192 180 187 176 182 173 178 174 190 204 208 202 174 176 208 231 237 215 202 188 196
173 173 177 179 181 182 182 183 182 184 187 184 189 189 190 193 196 185 178 185 191 191 193 185 191 183 190 170 185 185 191 197 215 220 212 184 165 185 242 262 219 200 208
175 173 177 178 182 183 183 183 182 186 187 191 196 195 200 200 194 186 180 184 189 195 199 194 189 191 200 189 191 171 187 195 217 221 206 211 203 211 199 240 243 236 223
173 169 170 172 180 182 183 183 184 188 189 195 201 203 205 203 197 190 183 186 187 195 202 200 191 193 205 200 190 180 190 204 219 238 234 204 204 220 216 220 227 233 237
166 164 168 172 178 182 183 184 184 190 193 198 204 206 208 206 201 198 192 192 192 193 199 202 192 195 200 199 194 193 203 202 211 225 243 237 225 222 233 221 240 246 244
162 164 166 171 178 181 182 183 187 192 196 202 204 207 208 210 207 206 203 200 201 198 193 195 192 196 197 204 198 199 206 201 208 222 227 246 246 237 241 230 228 255 262
156 156 160 167 175 178 182 186 187 191 195 202 202 206 208 210 210 206 208 207 207 204 193 193 195 198 199 204 200 206 210 203 206 219 220 228 243 241 248 245 222 217 251
154 152 150 156 165 173 175 181 183 191 195 200 201 205 206 210 207 208 212 206 204 206 192 198 198 199 200 202 204 204 209 209 209 216 221 216 231 233 227 233 239 222 225
150 145 142 145 150 155 165 172 177 183 190 197 200 207 201 204 204 207 210 206 200 198 196 196 198 198 203 204 204 207 205 211 212 218 219 215 220 231 232 227 233 237 230
136 132 132 137 142 148 158 164 171 179 184 189 191 199 199 198 201 205 204 197 194 196 196 196 197 203 206 204 203 210 212 214 215 218 218 216 219 223 232 235 243 245 241
120 119 121 126 129 133 136 145 163 173 175 174 179 187 195 196 196 193 189 189 190 193 191 195 199 206 208 208 208 210 217 217 214 214 216 218 221 226 230 228 234 243 253
120 119 116 115 115 117 124 138 152 159 160 161 168 174 180 181 182 175 173 181 186 188 186 194 196 202 207 206 209 211 214 217 216 216 218 220 222 223 226 229 231 236 251
127 122 120 115 116 115 116 125 131 129 140 149 157 159 162 163 169 166 163 167 177 180 179 186 190 196 203 214 214 214 214 218 219 213 212 205 183 178 190 210 204 235 241
128 125 123 120 117 121 129 120 113 108 113 129 138 139 142 146 145 145 147 146 149 158 162 170 172 180 203 198 191 196 210 209 202 193 191 177 155 139 136 123 108 136 226
122 119 115 111 106 107 105 110 115 115 111 111 108 115 130 135 135 146 139 139 140 137 139 137 127 121 88 90 126 147 155 147 154 165 170 180 125 118 132 139 137 75 24
113 110 110 102 93 94 103 103 105 108 108 106 101 103 117 122 124 124 127 128 123 119 116 111 104 91 65 82 121 125 127 101 88 75 80 95 72 56 87 129 115 91 54
103 96 94 93 84 80 89 98 94 92 92 90 84 81 90 102 109 115 115 117 115 106 95 89 91 84 58 55 82 110 109 101 86 70 59 68 69 47 60 88 96 86 59
101 98 94 91 82 74 79 89 90 85 82 83 81 76 78 84 86 95 100 100 101 96 89 78 72 72 65 56 69 93 99 100 92 81 71 63 66 57 64 87 93 88 54
102 98 92 88 80 76 82 87 84 82 82 87 83 77 79 82 81 87 93 99 99 96 88 80 72 66 62 62 62 73 93 99 95 88 79 64 64 69 68 72 73 69 20
104 100 93 87 81 81 85 86 81 78 83 83 79 73 70 72 79 85 87 92 97 96 91 86 76 64 57 56 63 67 73 82 88 89 88 84 76 71 68 70 64 51 30
98 98 97 90 82 82 86 88 82 81 86 84 79 76 73 67 65 71 77 80 82 90 92 88 84 76 68 64 67 74 75 77 84 88 102 110 106 96 83 72 53 44 33
93 93 94 90 82 78 80 84 90 93 92 91 86 82 78 71 61 57 57 59 55 75 87 88 87 81 64 51 53 75 84 91 93 107 118 113 88 81 72 71 59 57 45
93 90 89 88 85 81 80 82 90 99 98 96 94 89 84 83 74 65 53 61 51 48 70 77 76 78 69 32 35 57 56 54 64 93 112 95 78 68 62 59 53 45 35
98 96 91 89 86 83 80 82 90 99 102 102 101 100 99 96 94 92 78 58 63 60 61 66 80 74 74 64 55 53 48 41 44 62 67 62 57 54 49 43 45 47 39